Content
SEND FEEDBACK

Daily
Averages
Monthly
Summary
Canada

SOREL, QUEBEC


Home > North America > Canada > Quebec
Elevation: 49 feet     Latitude: 46 28N     Longitude: 073 45W

WEATHER
 
SELECT A DAY
Number of Records: 198,435;   Date Range: 1/1/95 - 8/19/14
 
SHARE

PRINT THIS DATA

[ ← Previous Day ]
WEATHER ALMANAC - MARCH 5, 2013
[ Next Day → ]
[ °C ]   °F
Weather ElementAverageHighLow
Temperature28.3 °F33.8 °F (3:00 pm)23 °F (7:00 am)
Dewpoint23.5 °F30.2 °F (11:00 pm)21 °F (7:00 am)
Humidity81.1 %93 % (7:00 am)66 % (1:00 pm)
Barometer30.09 in30.17 in (7:00 pm)29.93 in (1:00 am)
Wind Speed7.6 mph16.1 mph (11:00 pm)
Wind Gust21.9 mph (11:00 pm)
Weather ElementAverage
Visibility12.2 mi
Wind DirectionSSW (196.6 °)

Weather ElementTotal
Precipitation---
Heating Degree Days36.6 (Base 65)
Averaged from 29 records on March 5, 2013
WEATHER CONDITIONS BREAKOUT
WIND DIRECTION BREAKOUT
WEATHER BY HOUR - MARCH 5, 2013
[ °C ]   °F
Local TimeTemperatureDewpointHumidityBarometerVisibilityWind DirectionWind SpeedGust SpeedPrecipitationEventsConditions
1:00 AM25.0 °F22.0 °F82 %29.93 in7.0 miWSW (240°)13.8 mphSnowLight Snow
1:00 AM24.8 °F21.2 °F86 %29.93 in8.0 miWSW (240°)13.8 mphSnowLight Snow
2:00 AM24.8 °F21.2 °F86 %29.95 in8.0 miWSW (240°)13.8 mphSnowLight Snow
3:00 AM24.8 °F21.2 °F86 %29.96 in12.0 miWSW (240°)12.7 mphSnowLight Snow
4:00 AM24.8 °F21.2 °F86 %29.99 in12.0 miWSW (240°)12.7 mphSnowLight Snow
5:00 AM24.8 °F21.2 °F86 %30.02 in5.0 miWSW (240°)12.7 mphSnowLight Snow
6:00 AM24.8 °F21.2 °F86 %30.04 in8.0 miWSW (240°)11.5 mphSnowLight Snow
7:00 AM23.0 °F21.2 °F93 %30.06 in6.0 miWSW (240°)11.5 mphSnowLight Snow
7:00 AM24.0 °F21.0 °F82 %30.06 in6.0 miWSW (240°)11.5 mphSnowLight Snow
8:00 AM24.8 °F21.2 °F86 %30.09 in10.0 miWSW (240°)9.2 mphSnowLight Snow
9:00 AM24.8 °F21.2 °F86 %30.10 in8.0 miWSW (240°)9.2 mphSnowLight Snow
10:00 AM26.6 °F21.2 °F80 %30.11 in10.0 miWSW (240°)9.2 mphSnowLight Snow
11:00 AM28.4 °F23.0 °F80 %30.11 in15.0 miWSW (250°)6.9 mphSnowLight Snow
11:38 AM28.4 °F23.0 °F80 %30.12 in15.0 miWNW (290°)4.6 mphOvercast
12:00 PM28.4 °F23.0 °F80 %30.12 in15.0 miWest (260°)3.5 mphSnowLight Snow
1:00 PM31.0 °F24.0 °F66 %30.11 in15.0 miWSW (240°)3.5 mphSnowLight Snow
1:00 PM30.2 °F24.8 °F80 %30.11 in15.0 miWSW (240°)3.5 mphSnowLight Snow
1:46 PM30.2 °F24.8 °F80 %30.12 in15.0 miSSW (200°)5.8 mphMostly Cloudy
2:00 PM32.0 °F24.8 °F75 %30.12 in15.0 miSSW (200°)5.8 mphMostly Cloudy
3:00 PM33.8 °F24.8 °F70 %30.14 in15.0 miSouth (180°)4.6 mphMostly Cloudy
4:00 PM33.8 °F26.6 °F75 %30.14 in15.0 miSouth (170°)2.3 mphPartly Cloudy
5:00 PM33.8 °F24.8 °F70 %30.15 in15.0 miSW (220°)2.3 mphScattered Clouds
6:00 PM30.2 °F24.8 °F80 %30.15 in15.0 miWSW (240°)6.9 mphScattered Clouds
7:00 PM29.0 °F24.0 °F72 %30.17 in15.0 miSW (230°)2.3 mphPartly Cloudy
7:00 PM28.4 °F23.0 °F80 %30.17 in15.0 miCalmScattered Clouds
8:00 PM30.2 °F24.8 °F80 %30.16 in15.0 miCalmScattered Clouds
9:00 PM30.2 °F26.6 °F86 %30.15 in15.0 miNNE (20°)3.5 mphMostly Cloudy
10:00 PM32.0 °F28.4 °F87 %30.14 in15.0 miNNE (30°)6.9 mphOvercast
11:00 PM33.8 °F30.2 °F87 %30.14 in15.0 miNE (50°)16.1 mph21.9 mphOvercast
Hourly data recorded from CYUL, located miles away from Sorel, Quebec







STORIES FROM OUR PARTNERS